TimeCST,TemperatureF,Dew PointF,Humidity,Sea Level PressureIn,VisibilityMPH,Wind Direction,Wind SpeedMPH,Gust SpeedMPH,PrecipitationIn,Events,Conditions,WindDirDegrees,DateUTC
12:58 AM,25.2,19.8,80,30.31,10.0,Calm,Calm,-,N/A,,Clear,0,2013-02-17 06:58:00
1:58 AM,21.9,18.0,85,30.31,10.0,Calm,Calm,-,N/A,,Clear,0,2013-02-17 07:58:00
2:58 AM,22.3,19.4,89,30.30,10.0,SE,1.2,-,N/A,,Clear,130,2013-02-17 08:58:00
3:58 AM,25.2,21.6,86,30.30,10.0,SSE,1.2,-,N/A,,Overcast,150,2013-02-17 09:58:00
4:58 AM,27.7,24.3,87,30.31,10.0,SSE,3.5,-,N/A,,Overcast,160,2013-02-17 10:58:00
5:58 AM,28.4,24.6,86,30.32,10.0,SE,2.3,-,N/A,,Overcast,140,2013-02-17 11:58:00
6:58 AM,29.3,25.0,84,30.33,10.0,South,2.3,-,N/A,,Overcast,170,2013-02-17 12:58:00
7:58 AM,31.5,23.9,74,30.33,10.0,SSE,4.6,-,N/A,,Overcast,150,2013-02-17 13:58:00
8:58 AM,34.3,23.0,63,30.35,10.0,South,8.1,-,N/A,,Overcast,170,2013-02-17 14:58:00
9:58 AM,38.3,18.1,44,30.36,10.0,South,4.6,-,N/A,,Overcast,170,2013-02-17 15:58:00
10:58 AM,43.5,13.6,30,30.36,10.0,SSW,8.1,-,N/A,,Mostly Cloudy,210,2013-02-17 16:58:00
11:58 AM,47.1,15.1,28,30.33,10.0,ESE,8.1,-,N/A,,Mostly Cloudy,120,2013-02-17 17:58:00
12:58 PM,48.2,16.0,28,30.30,10.0,SSW,10.4,-,N/A,,Clear,210,2013-02-17 18:58:00
1:58 PM,50.9,18.1,27,30.27,10.0,Variable,5.8,-,N/A,,Clear,0,2013-02-17 19:58:00
2:58 PM,51.8,20.7,30,30.24,10.0,South,8.1,-,N/A,,Clear,180,2013-02-17 20:58:00
3:58 PM,52.9,21.9,30,30.22,10.0,SSE,10.4,-,N/A,,Clear,150,2013-02-17 21:58:00
4:58 PM,51.6,22.5,32,30.22,10.0,SSE,8.1,-,N/A,,Clear,150,2013-02-17 22:58:00
5:58 PM,43.7,25.0,48,30.22,10.0,SE,5.8,-,N/A,,Clear,130,2013-02-17 23:58:00
6:58 PM,38.3,26.2,62,30.22,10.0,SE,6.9,-,N/A,,Clear,130,2013-02-18 00:58:00
7:58 PM,36.9,25.9,64,30.23,10.0,SE,6.9,-,N/A,,Clear,130,2013-02-18 01:58:00
8:58 PM,36.0,25.5,66,30.23,10.0,SE,8.1,-,N/A,,Clear,130,2013-02-18 02:58:00